This is the latest recevied weather packets stored in our database for station/object DC4AT. If no packets are shown the sender has not sent any weather packets the latest 10 day(s).
| Time | Temp. | Humidity | Pressure | Rain* | Wind** | Luminosity | Snow |
|---|---|---|---|---|---|---|---|
| 1777873417 | 13.33° C | 76% | 1013.2 hPa | 0 mm | - | 91 W/m² | - |
| 1777872817 | 12.78° C | 78% | 1013.2 hPa | 0 mm | - | 70 W/m² | - |
| 1777872217 | 12.78° C | 80% | 1013.2 hPa | 0 mm | - | 69 W/m² | - |
| 1777871617 | 12.22° C | 82% | 1013 hPa | 0 mm | - | 47 W/m² | - |
| 1777871017 | 12.22° C | 81% | 1012.8 hPa | 0 mm | - | 33 W/m² | - |
| 1777870417 | 12.22° C | 80% | 1012.6 hPa | 0 mm | - | 40 W/m² | - |
| 1777869817 | 11.67° C | 80% | 1012.6 hPa | 0 mm | - | 39 W/m² | - |
| 1777869217 | 11.67° C | 80% | 1012.6 hPa | 0 mm | - | 11 W/m² | - |
| 1777868617 | 11.67° C | 79% | 1012.7 hPa | 0 mm | - | 7 W/m² | - |
| 1777868018 | 12.22° C | 79% | 1012.6 hPa | 0 mm | - | 7 W/m² | - |
| 1777867418 | 12.22° C | 79% | 1012.6 hPa | 0 mm | - | 5 W/m² | - |
| 1777866818 | 12.22° C | 79% | 1012.5 hPa | 0 mm | - | 0 W/m² | - |
| 1777866218 | 11.67° C | 80% | 1012.5 hPa | 0 mm | - | 0 W/m² | - |
| 1777865618 | 11.67° C | 79% | 1012.5 hPa | 0 mm | - | 0 W/m² | - |
| 1777865018 | 11.67° C | 78% | 1012.6 hPa | 0 mm | - | 0 W/m² | - |
| 1777864418 | 12.22° C | 77% | 1012.5 hPa | 0 mm | - | 0 W/m² | - |
| 1777863818 | 12.78° C | 76% | 1012.4 hPa | 0 mm | - | 0 W/m² | - |
| 1777863218 | 12.78° C | 76% | 1012.3 hPa | 0 mm | - | 0 W/m² | - |
| 1777862618 | 12.78° C | 75% | 1012.5 hPa | 0 mm | - | 0 W/m² | - |
| 1777862018 | 12.78° C | 76% | 1012.4 hPa | 0 mm | - | 0 W/m² | - |
| 1777861418 | 12.78° C | 77% | 1012.5 hPa | 0 mm | - | 0 W/m² | - |
| 1777860818 | 12.78° C | 77% | 1012.5 hPa | 0 mm | - | 0 W/m² | - |
| 1777860218 | 12.78° C | 76% | 1012.5 hPa | 0 mm | - | 0 W/m² | - |
| 1777859618 | 12.78° C | 76% | 1012.5 hPa | 0 mm | - | 0 W/m² | - |
| 1777859018 | 12.22° C | 77% | 1012.5 hPa | 0 mm | - | 0 W/m² | - |
* Rain latest hour (hover to see other rain measurements)
** Current wind speed in m/s (hover to see current wind gust speed)